Regional Weather Roundup
Issued by NWS

Home | Current Version | Previous Version | Text Only | Print | Product List | Glossary Off
Versions: 1 2 3 4 5 6 7 8 9 10 11 12 13 14 15 16 17 18 19 20 21 22 23 24 25 26 27 28 29 30 31 32 33 34 35 36 37 38 39 40 41 42 43 44 45 46 47 48 49 50

000
ASUS43 KFSD 260102
RWRSD

WEATHER ROUNDUP FOR SOUTH DAKOTA
NATIONAL WEATHER SERVICE SIOUX FALLS SD
800 PM CDT MON SEP 25 2017

NOTE: "FAIR" INDICATES FEW OR NO CLOUDS BELOW 12,000 FEET WITH NO
SIGNIFICANT WEATHER AND/OR OBSTRUCTIONS TO VISIBILITY.


SDZ001>005-009-010-012>017-260200-
NORTHWEST AND NORTH CENTRAL SOUTH DAKOTA

CITY           SKY/WX    TMP DP  RH WIND       PRES   REMARKS
FAITH            N/A     48  43  82 NE8       30.10R
MOBRIDGE       CLOUDY    51  45  79 NE3       30.08F
$$

SDZ012>016-024>037-041>051-057-063-072>074-260200-
SOUTHWEST AND SOUTH CENTRAL SOUTH DAKOTA

CITY           SKY/WX    TMP DP  RH WIND       PRES   REMARKS
RAPID CTY ARPT NOT AVBL
PIERRE         CLOUDY    51  45  79 N5        30.08R
CUSTER         CLOUDY    43  35  73 CALM      30.09S
ELLSWORTH AFB  CLOUDY    50  44  78 SE6       30.09R
PHILIP         CLOUDY    53  43  68 NE8       30.10R
PINE RIDGE     CLOUDY    50  44  80 E5        30.09S
SPEARFISH      CLOUDY    46  46 100 CALM      30.10S
WINNER         CLOUDY    51  47  86 N7        30.08S
$$

SDZ004>011-016>023-039-040-260200-
NORTHEAST SOUTH DAKOTA

CITY           SKY/WX    TMP DP  RH WIND       PRES   REMARKS
ABERDEEN       CLOUDY    50  45  83 N12       30.08R
WATERTOWN      CLOUDY    49  48  97 N13       30.03F
BROOKINGS      LGT RAIN  50  49  96 N9        30.03S FOG
SISSETON         N/A     51  47  86 N13       30.05F
$$

SDZ017-020-022-023-036>040-048>070-260200-
SOUTHEAST SOUTH DAKOTA

CITY           SKY/WX    TMP DP  RH WIND       PRES   REMARKS
SIOUX FALLS    LGT RAIN  54  53  97 N7        30.01S
HURON          CLOUDY    52  47  83 N10       30.05R
CHAMBERLAIN    RAIN      52  50  92 N6        30.08R
MITCHELL       CLOUDY    52  51  97 N9        30.06R
YANKTON        LGT RAIN  53  52  96 N12       30.02S
$$

ABBREVIATIONS USED IN REMARKS
   TC - TEMPERATURE IN CELSIUS
  WCI - WIND CHILL INDEX
   HX - HEAT INDEX
  VSB - VISIBILITY




USA.gov is the U.S. government's official web portal to all federal, state and local government web resources and services.